TimePDT,TemperatureF,Dew PointF,Humidity,Sea Level PressureIn,VisibilityMPH,Wind Direction,Wind SpeedMPH,Gust SpeedMPH,PrecipitationIn,Events,Conditions,WindDirDegrees,DateUTC
12:54 AM,54.0,51.1,90,30.10,10.0,South,6.9,-,N/A,,Clear,190,2013-07-04 07:54:00
1:54 AM,53.1,50.0,89,30.11,10.0,South,5.8,-,N/A,,Clear,190,2013-07-04 08:54:00
2:54 AM,52.0,48.9,89,30.11,10.0,Calm,Calm,-,N/A,,Clear,0,2013-07-04 09:54:00
3:54 AM,52.0,50.0,93,30.11,10.0,South,3.5,-,N/A,,Partly Cloudy,190,2013-07-04 10:54:00
4:09 AM,52.0,50.0,93,30.11,10.0,Calm,Calm,-,N/A,,Mostly Cloudy,0,2013-07-04 11:09:00
4:54 AM,55.0,51.1,86,30.11,10.0,Calm,Calm,-,N/A,,Overcast,0,2013-07-04 11:54:00
5:54 AM,55.0,51.1,86,30.12,10.0,WSW,3.5,-,N/A,,Overcast,250,2013-07-04 12:54:00
6:54 AM,55.0,52.0,89,30.12,10.0,WSW,3.5,-,N/A,,Overcast,250,2013-07-04 13:54:00
7:54 AM,55.9,52.0,87,30.13,10.0,WSW,3.5,-,N/A,,Overcast,240,2013-07-04 14:54:00
8:54 AM,57.0,51.1,81,30.14,10.0,West,3.5,-,N/A,,Overcast,270,2013-07-04 15:54:00
9:54 AM,59.0,52.0,78,30.14,10.0,Calm,Calm,-,N/A,,Overcast,0,2013-07-04 16:54:00
10:54 AM,60.1,52.0,75,30.14,10.0,Calm,Calm,-,N/A,,Overcast,0,2013-07-04 17:54:00
11:42 AM,63.0,52.0,67,30.13,10.0,Calm,Calm,-,N/A,,Overcast,0,2013-07-04 18:42:00
11:54 AM,64.0,52.0,65,30.13,10.0,Variable,3.5,-,N/A,,Overcast,0,2013-07-04 18:54:00
12:54 PM,68.0,52.0,56,30.12,10.0,Variable,3.5,-,N/A,,Mostly Cloudy,0,2013-07-04 19:54:00
1:54 PM,69.1,51.1,53,30.12,10.0,NNW,6.9,-,N/A,,Mostly Cloudy,330,2013-07-04 20:54:00
2:54 PM,70.0,51.1,51,30.10,10.0,Variable,5.8,-,N/A,,Overcast,0,2013-07-04 21:54:00
3:54 PM,70.0,51.1,51,30.09,10.0,WNW,6.9,-,N/A,,Overcast,290,2013-07-04 22:54:00
4:54 PM,68.0,53.1,59,30.07,10.0,SSW,12.7,-,N/A,,Overcast,200,2013-07-04 23:54:00
5:54 PM,66.9,52.0,59,30.07,10.0,WSW,10.4,-,N/A,,Overcast,250,2013-07-05 00:54:00
6:54 PM,66.0,52.0,60,30.06,10.0,WSW,8.1,-,0.00,Rain,Light Rain,240,2013-07-05 01:54:00
7:54 PM,64.9,52.0,63,30.06,10.0,SW,8.1,-,0.00,,Overcast,220,2013-07-05 02:54:00
8:54 PM,63.0,52.0,67,30.06,10.0,SSW,8.1,-,N/A,,Overcast,210,2013-07-05 03:54:00
9:54 PM,61.0,52.0,72,30.06,10.0,SSW,5.8,-,N/A,,Overcast,200,2013-07-05 04:54:00
10:54 PM,57.9,51.1,78,30.06,10.0,SSW,6.9,-,N/A,,Mostly Cloudy,200,2013-07-05 05:54:00
11:54 PM,55.9,50.0,80,30.05,10.0,SSW,5.8,-,N/A,,Overcast,200,2013-07-05 06:54:00